Погода в Верхнем Четкере

Россия / Удмуртская Республика     57°29′31″N   53°37′43″E
темп.,
°C
ветер,
м/с
пор.,
м/с
влажн.,
%
обл.,
%
осадки,
мм/ч
давл.,
гПа
погр.,
м
14 апреля, ср
ср1401:00+7ююз399569 0.0 1032147
04:00+6юз369567 0.0 103295
07:00+7юз279452 0.0 1031146
10:00+13юз367320 0.0 1030443
13:00+17юз45515 0.0 10291042
16:00+17ююз465054 0.0 10271155
19:00+13ююз36715 0.0 102692
22:00+10ююз37825 0.0 1026108
15 апреля, чт
чт1501:00+9ююз389122 0.0 1025128
04:00+8ююз369343 0.0 1024112
07:00+8ююз27906 0.0 1022185
10:00+14юз57715 0.0 1021612
13:00+17юз575668 0.0 10191491
16:00+15з3760100 0.0 1018641
19:00+13з2878100 0.0 1018198
22:00+8ссв61089100 0.9 1020408
16 апреля, пт
пт1601:00+4ссв61289100 0.4 1022591
04:00+3св51279100 2.6 1024742
07:00+3св61167100 0.0 1026817
10:00+5св68500 0.0 1026963
13:00+8св56380 0.0 10261289
16:00+8св55355 0.0 10261410
19:00+5ссв36515 0.0 1027157
22:00+2ссв35630 0.0 102784
17 апреля, сб
сб1701:00+1с23654 0.0 102738
04:000сз23695 0.0 102745
07:00+2сз38620 0.0 1027252
10:00+6ссз575418 0.0 10261275
13:00+7ссз564898 0.1 10261750
16:00+8ссз564372 0.1 10251829
19:00+6ссз48545 0.0 1026294
22:00+2сз310675 0.0 1026216
18 апреля, вс
вс1801:00+2ссз5117216 0.0 1027622
04:000сз411835 0.0 1028434
07:00+1ссз510765 0.0 10291007
10:00+4ссз695197 0.0 10291448
13:00+4ссз6853100 0.0 10291670
16:00+4ссз5859100 0.1 10301394
19:00+3с476235 0.1 1031584
22:00−1с24745 0.1 103263